Weather in Vershinino

Russia / Tomsk District     56°13′32″N   84°55′41″E
temp.,
°C
wind,
m/s
gust,
m/s
humid.,
%
clouds,
%
prec.,
mm/h
press.,
hPa
HPBL,
m
17 september, fri
fri1701:00+10sse3108478 0.0 1007179
04:00+10se288294 0.0 1006165
07:00+12sse31172100 0.0 1005279
10:00+13sse41373100 0.3 1004417
13:00+19sse61352100 0.3 1001834
16:00+20sse61347100 0.0 1000923
19:00+18sse5145299 0.0 998701
22:00+16sse51453100 0.0 996484
18 september, sat
sat1801:00+16sse61549100 0.0 993564
04:00+12w71179100 0.0 994741
07:00+8wsw5118963 0.8 1000979
10:00+9sw5117719 0.1 10041334
13:00+9wsw51060100 0.3 10071545
16:00+9sw51159100 0.0 10081670
19:00+9sw4966100 0.0 10091165
22:00+7ssw267185 0.0 1010395
19 september, sun
sun1901:00+6s3876100 0.0 1009331
04:00+7s3970100 0.0 1009457
07:00+5s3978100 0.0 1008274
10:00+8ssw3965100 0.0 1007535
13:00+11sw5962100 0.1 10061559
16:00+10wnw346960 0.4 1006729
19:00+7nw238259 0.4 100571
22:00+5ne2391100 0.0 100587
20 september, mon
mon2001:00+6s1395100 1.3 1004125
04:00+5wsw3794100 0.1 1004408
07:00+3sw2798100 0.3 1006269
10:00+5sw3787100 0.3 1006547
13:00+4sw4797100 1.2 1008538
16:00+5wsw478288 0.8 10081150
19:00+3w389171 1.1 1010645
22:00+1wsw289691 0.0 1012353
21 september, tue
tue2101:00+3w3798100 0.8 1013490
04:00+3w3898100 0.4 1014656
07:00+2w399682 0.8 1017456
10:00+3w4793100 0.0 1018544
13:00+3w3897100 0.4 1020498
16:00+4wsw4888100 0.2 1021763
19:00+3w4888100 0.4 1022655
22:00+2wsw3993100 0.0 1022400